Flag for U.S.A. Weather past 2 weeks in Des Moines, Iowa, U.S.A.

Now
71 °F

Passing clouds.


Feels Like: 77 °F
Forecast: 54 / 67 °F
Wind: 25 mph from South

Location: Des Moines International Airport

Current Time: Apr 1, 2015 at 9:24:59 PM

Latest Report: Apr 1, 2015 at 8:54 PM


Visibility: 10 mi

Pressure: 29.64 "Hg

Humidity: 47%

Dew point: 50 °F

Location of Des MoinesLocation

Historic Weather in Des Moines — Graph

°F

Des Moines temperature yesterday

Maximum temperature yesterday: 76 °F (at 3:54 PM)
Minimum temperature yesterday: 43 °F (at 6:54 AM)
Average temperature yesterday: 61 °F

Past Weeks' High & Low Weather Summary

 TemperatureHumidityPressure
High82 °F (Apr 1, 2:54 PM)97% (Mar 25, 6:03 AM)30.41 "Hg (Mar 25, 6:03 AM)
Low26 °F (Mar 27, 6:54 AM)15% (Mar 30, 2:54 PM)29.63 "Hg (Apr 1, 7:54 PM)
Average46 °F51%30.09 "Hg
* Reported Mar 17 7:54 PM — Apr 1 7:54 PM, Des Moines, Weather by CustomWeather, © 2015

Note: Actual official high and low records may vary slightly from our data, if they occured in-between our weather recording intervals... More about our weather records

Advertising

Des Moines weather history for previous 24 hours

 ConditionsComfort  
Time TempWeatherWind HumidityBarometerVisibility
7:54 PM
Wed, Apr 1
74 °FPassing clouds.15 mph40%29.63 "Hg10 mi
6:54 PM77 °FPassing clouds.29 mph33%29.63 "Hg10 mi
5:54 PM80 °FPassing clouds.24 mph28%29.64 "Hg10 mi
4:54 PM82 °FPassing clouds.29 mph23%29.65 "Hg10 mi
3:54 PM82 °FPassing clouds.25 mph19%29.67 "Hg10 mi
2:54 PM82 °FScattered clouds.24 mph19%29.71 "Hg10 mi
1:54 PM80 °FPartly sunny.26 mph20%29.75 "Hg10 mi
12:54 PM79 °FPartly sunny.25 mph21%29.78 "Hg10 mi
11:54 AM75 °FPassing clouds.28 mph25%29.82 "Hg10 mi
10:54 AM72 °FScattered clouds.28 mph25%29.84 "Hg10 mi
9:54 AM69 °FPassing clouds.18 mph26%29.84 "Hg10 mi
8:54 AM63 °FPassing clouds.15 mph33%29.85 "Hg10 mi
7:54 AM57 °FPassing clouds.12 mph41%29.87 "Hg10 mi
6:54 AM54 °FPassing clouds.10 mph45%29.86 "Hg10 mi
5:54 AM54 °FClear.8 mph45%29.87 "Hg10 mi
4:54 AM54 °FClear.8 mph43%29.85 "Hg10 mi
3:54 AM53 °FClear.9 mph47%29.84 "Hg10 mi
2:54 AM56 °FClear.9 mph40%29.86 "Hg10 mi
1:54 AM54 °FClear.8 mph45%29.88 "Hg10 mi
12:54 AM54 °FClear.8 mph45%29.89 "Hg10 mi
11:54 PM
Tue, Mar 31
56 °FClear.10 mph40%29.91 "Hg10 mi
10:54 PM58 °FClear.8 mph36%29.92 "Hg10 mi
9:54 PM65 °FPassing clouds.6 mph26%29.92 "Hg10 mi
Weather by CustomWeather, © 2015

See weather overviewHow to use our weather pages